[[[{"header":{"parameterUnit":"kt","parameterCategory":2,"dx":1,"dy":1,"la1":30.253999710083008,"la2":30.299108505249023,"lo1":-89.0895004272461,"lo2":-89.04439544677734,"nx":28,"ny":28,"refTime":"2022-09-30T21:00:00:Z","depth":"0","parameterNumber":2,"parameterNumberName":"U-component_of_CURRENTS"},"data":[0.5689,0.5749,0.5697,0.5633,0.5605,0.5482,0.5485,0.5446,0.555,0.5609,0.568,0.5891,0.63,0.6491,0.6327,0.6159,0.5683,0.5426,0.5433,0.605,0.6107,0.6163,0.5972,0.5612,0.5611,0.427,0.4261,0.4254,0.5537,0.5553,0.5614,0.5685,0.5659,0.5719,0.5842,0.5835,0.5947,0.6239,0.649,0.6687,0.6748,0.6897,0.6915,0.6696,0.6337,0.6511,0.6005,0.5884,0.6741,0.6559,0.6319,0.6319,0.6319,0.6319,0.6319,0.6319,0.5386,0.5416,0.5562,0.5654,0.5741,0.5794,0.5836,0.6062,0.6269,0.655,0.696,0.7153,0.7427,0.7655,0.7635,0.743,0.7399,0.7182,0.7167,0.6912,0.6553,0.7463,0.7471,0.7475,0.7478,0.7481,0.7483,0,0.5343,0.5382,0.5522,0.5629,0.5759,0.5888,0.6102,0.6218,0.6605,0.6821,0.7185,0.742,0.7805,0.7863,0.8036,0.8034,0.7658,0.7943,0.78,0.7078,0.6713,0.6513,0.7469,0.7505,0.7509,0.7512,0.7514,0.7516,0.5389,0.5409,0.5621,0.5716,0.5835,0.5994,0.6135,0.6439,0.6619,0.7081,0.7192,0.7574,0.781,0.8142,0.8193,0.8307,0.8035,0.8038,0.7803,0.7629,0.7584,0.7291,0.7106,0.756,0.7555,0.755,0.7546,0,0.5441,0.5598,0.5707,0.5955,0.6025,0.6095,0.6402,0.6541,0.6809,0.7063,0.7163,0.7538,0.7811,0.797,0.8198,0.8128,0.8021,0.8224,0.7939,0.791,0.7653,0.7601,0.7321,0.7104,0.8248,0.8248,0.8248,0,0.5651,0.5713,0.596,0.6012,0.6115,0.6329,0.647,0.6655,0.6928,0.711,0.7305,0.7482,0.7677,0.7846,0.7895,0.8004,0.8066,0.7951,0.7965,0.7691,0.7664,0.7502,0.7435,0.8003,0.8001,0.7999,0.7997,0,0.575,0.598,0.6051,0.6133,0.6409,0.646,0.6592,0.6819,0.6948,0.7211,0.7334,0.7487,0.762,0.7677,0.7818,0.775,0.8021,0.7933,0.7908,0.7908,0.7667,0.7639,0.7562,0.7994,0.7994,0.7993,0.7992,0,0.5958,0.6083,0.6198,0.6403,0.6456,0.6553,0.6731,0.6859,0.7072,0.718,0.7277,0.7369,0.7513,0.746,0.7636,0.7573,0.762,0.7691,0.77,0.7622,0.7587,0.7508,0.7589,0.7408,0.7818,0.7815,0.7813,0,0.5987,0.6151,0.6298,0.6424,0.651,0.6679,0.6785,0.6925,0.704,0.7161,0.7222,0.7332,0.7292,0.7361,0.7396,0.7529,0.7577,0.7469,0.7609,0.7614,0.7538,0.7661,0.7362,0.7562,0.7782,0.7786,0.7788,0,0.6002,0.6273,0.6282,0.6363,0.659,0.6674,0.6788,0.6926,0.7,0.7083,0.716,0.7236,0.7265,0.7293,0.7331,0.739,0.7532,0.7391,0.7391,0.7487,0.7689,0.7629,0.7645,0.7495,0.7497,0.7499,0.7763,0,0.6163,0.6249,0.6291,0.6478,0.6581,0.6675,0.6836,0.6905,0.6948,0.702,0.7097,0.7145,0.7191,0.7232,0.7247,0.734,0.7362,0.7313,0.7265,0.7344,0.7455,0.7474,0.7221,0.722,0.7219,0.7218,0,0,0.6117,0.6223,0.6357,0.6466,0.6547,0.669,0.677,0.6846,0.696,0.6977,0.698,0.7059,0.7085,0.7158,0.7205,0.721,0.7254,0.7195,0.7306,0.7316,0.7325,0.7434,0.7454,0.7216,0.7215,0.7215,0.7214,0,0.6178,0.6256,0.6321,0.6443,0.6616,0.6694,0.6733,0.686,0.6888,0.6959,0.6959,0.7009,0.7047,0.7084,0.7104,0.7187,0.7195,0.7207,0.725,0.7295,0.7306,0.7317,0.7425,0.7444,0.7211,0.7212,0.7212,0,0.6212,0.6319,0.6356,0.6525,0.6604,0.6709,0.6733,0.683,0.6892,0.6873,0.6905,0.6929,0.6952,0.701,0.7034,0.701,0.714,0.7079,0.7086,0.7079,0.7122,0.7135,0.7148,0.6986,0.6985,0.6984,0,0,0.6259,0.6329,0.65,0.6547,0.6611,0.671,0.676,0.6816,0.6868,0.6876,0.6884,0.6896,0.6932,0.6946,0.6971,0.7012,0.7032,0.7052,0.7062,0.7071,0.7069,0.7114,0.7128,0.6981,0.6981,0.6981,0,0,0.6267,0.6443,0.649,0.655,0.668,0.6786,0.6812,0.685,0.687,0.6851,0.6849,0.6853,0.6905,0.69,0.6865,0.6966,0.6923,0.6929,0.6966,0.6979,0.699,0.6981,0.6839,0,0,0,0,0,0.6417,0.6434,0.6476,0.6506,0.6641,0.6776,0.6791,0.6843,0.6815,0.685,0.6845,0.6828,0.6894,0.6861,0.6863,0.6911,0.6946,0.6952,0.6958,0.7016,0.703,0.7042,0,0,0,0,0,0,0.643,0.6462,0.6478,0.6584,0.6618,0.6771,0.6746,0.6758,0.6814,0.6815,0.6827,0.6828,0.6825,0.6859,0.6861,0.6908,0.6838,0.6948,0.6954,0.6959,0.7021,0.7032,0.7042,0,0,0,0,0,0.644,0.6467,0.667,0.6583,0.6612,0.6705,0.6743,0.6754,0.6774,0.6814,0.6816,0.682,0.6825,0.6827,0.686,0.6908,0.6836,0.6837,0.6952,0.6956,0.696,0.7026,0,0,0,0,0,0,0.6448,0.6438,0.6677,0.6688,0.6581,0.6698,0.6715,0.675,0.6766,0.6776,0.6806,0.6806,0.6825,0.6827,0.6828,0.691,0.6835,0.6836,0.6836,0.6955,0.6958,0.6961,0,0,0,0,0,0,0.6427,0.6446,0.6681,0.6676,0.6686,0.669,0.6706,0.6716,0.6763,0.675,0.6756,0.6806,0.6821,0.6826,0.6828,0.6841,0.6834,0.6835,0.6836,0.6836,0.6958,0.696,0,0,0,0,0,0,0.6436,0.6453,0.6672,0.6679,0.6688,0.6803,0.6695,0.6814,0.6811,0.6744,0.6811,0.6811,0.6821,0.6822,0.6827,0.684,0.6841,0.6834,0.6835,0.6835,0.6835,0,0,0,0,0,0,0,0.6444,0.6318,0.6636,0.6682,0.6689,0.6801,0.6801,0.6801,0.6811,0.6811,0.6811,0.6811,0.683,0.6831,0.6832,0.6839,0,0,0.6834,0.6835,0,0,0,0,0,0,0,0,0.6312,0.6317,0.6636,0.664,0.6644,0.6801,0.6801,0.6801,0.6811,0.6811,0.6811,0.6811,0.683,0.6831,0.6831,0,0,0,0,0,0,0,0,0,0,0,0,0,0,0,0.6637,0.664,0,0.6801,0.6801,0.6801,0.6811,0.6811,0.6811,0.6811,0.683,0.6831,0.6831,0,0,0,0,0,0,0,0,0,0,0,0,0,0,0,0,0,0,0,0,0,0,0,0,0,0,0,0,0,0,0,0,0,0,0,0,0,0,0,0,0,0,0,0,0,0,0,0,0,0,0,0,0,0,0,0,0,0,0,0,0,0,0,0,0,0,0,0,0]}],[{"header":{"parameterUnit":"kt","parameterCategory":2,"dx":1,"dy":1,"la1":30.253999710083008,"la2":30.299108505249023,"lo1":-89.0895004272461,"lo2":-89.04439544677734,"nx":28,"ny":28,"refTime":"2022-09-30T21:00:00:Z","depth":"0","parameterNumber":3,"parameterNumberName":"V-component_of_CURRENTS"},"data":[0.1556,0.1791,0.1894,0.2402,0.2641,0.3033,0.3292,0.3696,0.3954,0.4252,0.4216,0.4099,0.3138,0.0351,-0.1558,-0.1982,-0.2501,-0.2632,-0.2907,-0.2425,-0.2376,-0.233,-0.2372,-0.2813,-0.2815,-0.3586,-0.3595,-0.3601,0.1451,0.1596,0.183,0.2127,0.2421,0.2489,0.2903,0.3161,0.3615,0.3845,0.4043,0.3559,0.2449,0.1257,-0.0361,-0.1181,-0.145,-0.1634,-0.1862,-0.1916,-0.1112,-0.1104,-0.1282,-0.1281,-0.1281,-0.1281,-0.128,-0.128,0.129,0.1406,0.1572,0.1802,0.2032,0.2345,0.2567,0.2832,0.3166,0.3466,0.3425,0.3444,0.2485,0.1278,0.0649,-0.0544,-0.0569,-0.0928,-0.1128,-0.1243,-0.1355,-0.0417,-0.0501,-0.0502,-0.0502,-0.0503,-0.0503,0,0.1143,0.1188,0.1306,0.1538,0.1717,0.1925,0.2139,0.2321,0.2444,0.2613,0.2847,0.2826,0.2194,0.1605,0.0713,0.0285,-0.0581,-0.0368,-0.0769,-0.1032,-0.1177,-0.1343,-0.0433,-0.0446,-0.0447,-0.0447,-0.0447,-0.0447,0.0967,0.1048,0.1182,0.1309,0.1358,0.1523,0.1662,0.1701,0.1875,0.1994,0.2126,0.1935,0.1912,0.127,0.0609,0.0009,-0.0357,-0.0357,-0.0468,-0.0826,-0.1097,-0.1243,-0.1331,-0.0451,-0.045,-0.045,-0.045,0,0.0878,0.0889,0.1026,0.1093,0.1137,0.1256,0.1416,0.1541,0.1531,0.1725,0.172,0.155,0.1327,0.0881,0.0476,0.0141,-0.039,-0.0328,-0.0233,-0.0296,-0.0841,-0.1031,-0.1357,-0.1479,-0.0563,-0.0564,-0.0564,0,0.0721,0.0812,0.083,0.0895,0.1052,0.1026,0.1201,0.1196,0.1243,0.1395,0.1129,0.1204,0.0776,0.0597,0.0255,-0.005,-0.0027,-0.0365,-0.0442,-0.0393,-0.0392,-0.0791,-0.0994,-0.0396,-0.0395,-0.0394,-0.0393,0,0.056,0.0635,0.0748,0.0766,0.0808,0.0874,0.091,0.0916,0.0987,0.0929,0.095,0.0779,0.0732,0.0461,0.0153,0.0094,-0.0106,-0.0236,-0.0423,-0.0428,-0.0468,-0.0476,-0.0751,-0.0392,-0.0392,-0.0392,-0.0391,0,0.0403,0.0441,0.0574,0.0623,0.0644,0.0708,0.0776,0.0809,0.077,0.0724,0.0657,0.0516,0.0435,0.0272,0.005,0.0076,-0.0117,-0.0268,-0.0278,-0.0355,-0.0485,-0.0518,-0.0431,-0.0805,-0.0443,-0.0443,-0.0442,0,0.0249,0.0349,0.0314,0.0431,0.0483,0.0415,0.047,0.0457,0.0412,0.0407,0.0267,0.024,0.0088,0.0058,-0.0015,-0.0182,-0.0239,-0.0202,-0.0469,-0.0476,-0.0474,-0.0382,-0.033,-0.0426,-0.0438,-0.0438,-0.0439,0,0.0117,0.0106,0.0117,0.0145,0.0124,0.0147,0.0195,0.0201,0.0236,0.013,0.0155,0.0067,-0.0034,-0.0074,-0.018,-0.0236,-0.0241,-0.0356,-0.0365,-0.0387,-0.0372,-0.0378,-0.0383,-0.0319,-0.0318,-0.0317,-0.0435,0,-0.0048,-0.0022,0.0011,0.0011,0.0013,0.0047,-0.0014,-0.0017,-0.0083,-0.0136,-0.0162,-0.0271,-0.0325,-0.0364,-0.0427,-0.0406,-0.0475,-0.0549,-0.0616,-0.0532,-0.06,-0.0602,-0.0637,-0.0641,-0.0644,-0.0647,0,0,-0.0184,-0.0147,-0.0232,-0.0198,-0.0196,-0.0312,-0.0251,-0.028,-0.0347,-0.0352,-0.0425,-0.0517,-0.059,-0.0569,-0.0544,-0.0597,-0.0658,-0.0603,-0.0577,-0.0569,-0.0562,-0.062,-0.0618,-0.0652,-0.0653,-0.0654,-0.0655,0,-0.0252,-0.0287,-0.0246,-0.0272,-0.0325,-0.036,-0.0361,-0.0427,-0.0451,-0.0458,-0.0547,-0.0589,-0.0658,-0.0688,-0.0716,-0.064,-0.0754,-0.0676,-0.0544,-0.0603,-0.059,-0.0579,-0.0633,-0.0629,-0.0663,-0.0663,-0.0662,0,-0.0369,-0.0406,-0.0402,-0.0435,-0.0472,-0.0448,-0.0561,-0.0561,-0.054,-0.0677,-0.066,-0.0738,-0.0816,-0.0805,-0.0815,-0.0853,-0.084,-0.0845,-0.0831,-0.0812,-0.0879,-0.0864,-0.085,-0.1023,-0.1023,-0.1023,0,0,-0.0422,-0.0413,-0.0488,-0.0456,-0.0472,-0.0552,-0.0567,-0.0607,-0.065,-0.0664,-0.0731,-0.0793,-0.0827,-0.0846,-0.0891,-0.0886,-0.0953,-0.088,-0.0864,-0.0849,-0.0822,-0.0884,-0.0869,-0.1024,-0.1025,-0.1025,0,0,-0.0447,-0.0518,-0.0566,-0.0525,-0.057,-0.0636,-0.0618,-0.0677,-0.0702,-0.0708,-0.0805,-0.0822,-0.0829,-0.0894,-0.09,-0.0909,-0.0991,-0.0991,-0.0835,-0.0815,-0.0799,-0.075,-0.099,0,0,0,0,0,-0.0571,-0.0513,-0.0556,-0.0562,-0.0604,-0.0621,-0.0628,-0.0685,-0.0732,-0.0709,-0.0765,-0.0832,-0.0909,-0.0915,-0.0931,-0.0893,-0.1041,-0.1038,-0.1035,-0.0837,-0.0815,-0.0797,0,0,0,0,0,0,-0.0574,-0.0578,-0.0559,-0.0619,-0.0632,-0.0622,-0.0693,-0.0706,-0.0734,-0.0741,-0.0818,-0.0834,-0.0888,-0.0913,-0.0926,-0.0888,-0.0986,-0.104,-0.1037,-0.1035,-0.0829,-0.0812,-0.0797,0,0,0,0,0,-0.0577,-0.0581,-0.0626,-0.0621,-0.0631,-0.0704,-0.0693,-0.0705,-0.0719,-0.0809,-0.0825,-0.0763,-0.0885,-0.0901,-0.0921,-0.088,-0.0977,-0.0982,-0.1038,-0.1036,-0.1035,-0.0821,0,0,0,0,0,0,-0.0579,-0.0584,-0.063,-0.0637,-0.0636,-0.0705,-0.0713,-0.0704,-0.0787,-0.0803,-0.0759,-0.0764,-0.0883,-0.0896,-0.0908,-0.0871,-0.0971,-0.0975,-0.0978,-0.1037,-0.1035,-0.1034,0,0,0,0,0,0,-0.0584,-0.0589,-0.0633,-0.0648,-0.0657,-0.0705,-0.0712,-0.0753,-0.0788,-0.0731,-0.0738,-0.076,-0.0886,-0.0892,-0.0902,-0.0961,-0.0966,-0.097,-0.0973,-0.0975,-0.1036,-0.1034,0,0,0,0,0,0,-0.0588,-0.0592,-0.0646,-0.0653,-0.066,-0.0736,-0.0744,-0.0791,-0.0776,-0.0726,-0.0781,-0.0783,-0.0883,-0.0892,-0.0897,-0.0952,-0.0959,-0.0966,-0.0969,-0.0971,-0.0972,0,0,0,0,0,0,0,-0.0591,-0.0541,-0.0599,-0.0656,-0.0663,-0.0704,-0.0705,-0.0705,-0.0777,-0.0779,-0.078,-0.0782,-0.0941,-0.0946,-0.0951,-0.0944,0,0,-0.0965,-0.0967,0,0,0,0,0,0,0,0,-0.0541,-0.0541,-0.0599,-0.0601,-0.0603,-0.0704,-0.0704,-0.0705,-0.0777,-0.0779,-0.078,-0.0781,-0.0942,-0.0946,-0.095,0,0,0,0,0,0,0,0,0,0,0,0,0,0,0,-0.0599,-0.0601,0,-0.0704,-0.0704,-0.0705,-0.0777,-0.0779,-0.078,-0.0781,-0.0943,-0.0947,-0.095,0,0,0,0,0,0,0,0,0,0,0,0,0,0,0,0,0,0,0,0,0,0,0,0,0,0,0,0,0,0,0,0,0,0,0,0,0,0,0,0,0,0,0,0,0,0,0,0,0,0,0,0,0,0,0,0,0,0,0,0,0,0,0,0,0,0,0,0,0]}]],[[{"header":{"parameterUnit":"kt","parameterCategory":2,"dx":1,"dy":1,"la1":30.253999710083008,"la2":30.299108505249023,"lo1":-89.0895004272461,"lo2":-89.04439544677734,"nx":28,"ny":28,"refTime":"2022-09-30T21:00:00:Z","depth":"2","parameterNumber":2,"parameterNumberName":"U-component_of_CURRENTS"},"data":[0.4616,0.4649,0.4614,0.4563,0.4578,0.4488,0.4464,0.438,0.4439,0.4385,0.4408,0.4803,0.5017,0.4322,0.4255,0.3959,0.4194,0.3806,0.5297,0.5117,0.5184,0.5376,0.5097,0,0,0,0,0,0.4543,0.4573,0.4625,0.4705,0.4683,0.4804,0.4893,0.4842,0.4876,0.5121,0.5304,0.5017,0.4994,0.5123,0.4869,0.4898,0.4769,0.4679,0.4448,0.4536,0.4613,0.436,0.376,0.3753,0.3747,0.3741,0,0,0.4476,0.4498,0.4639,0.4742,0.483,0.4895,0.4926,0.5117,0.5282,0.5498,0.584,0.5946,0.608,0.6036,0.5896,0.5796,0.6225,0.5917,0.5937,0.5968,0.5796,0.57,0.5571,0.5577,0.5583,0.5588,0.5593,0,0.4492,0.4543,0.4655,0.4783,0.4896,0.5026,0.523,0.5317,0.5657,0.5855,0.6149,0.6348,0.6639,0.6519,0.6646,0.6599,0.6554,0.6425,0.7179,0.5927,0.5828,0.5825,0.5849,0.5753,0.5761,0.5767,0.5771,0.5774,0.4568,0.4594,0.4795,0.4872,0.4971,0.5145,0.527,0.5564,0.5715,0.6154,0.6235,0.6575,0.6746,0.7007,0.7007,0.7084,0.7167,0.6604,0.6382,0.6967,0.6968,0.6955,0.6942,0.586,0.5849,0.584,0.5833,0,0.4628,0.475,0.4842,0.5066,0.5143,0.5228,0.5514,0.5646,0.5916,0.6141,0.6236,0.6572,0.6789,0.6935,0.7116,0.7054,0.7139,0.7122,0.6591,0.6537,0.696,0.6945,0.7084,0.7082,0.7081,0.7079,0.7078,0,0.4783,0.4844,0.5065,0.5099,0.5211,0.5396,0.5548,0.572,0.598,0.6142,0.6353,0.6517,0.6686,0.6839,0.6886,0.6962,0.7049,0.6904,0.6919,0.6458,0.6412,0.6865,0.6845,0.7018,0.7017,0.7015,0.7014,0,0.4892,0.5055,0.5118,0.5168,0.5394,0.5457,0.5586,0.5815,0.595,0.6206,0.6344,0.65,0.6625,0.6701,0.6819,0.6774,0.6996,0.694,0.6881,0.6877,0.6424,0.6374,0.7012,0.7012,0.7011,0.7011,0.701,0,0.5033,0.5129,0.5211,0.539,0.543,0.5509,0.5704,0.582,0.6038,0.6157,0.6289,0.6397,0.6526,0.65,0.6663,0.662,0.6666,0.6719,0.6727,0.6589,0.6563,0.6232,0.6265,0.6818,0.6816,0.6813,0.6812,0,0.5081,0.519,0.5292,0.539,0.5454,0.5585,0.5688,0.5829,0.5969,0.6111,0.6196,0.633,0.631,0.6397,0.6443,0.6544,0.6598,0.6504,0.6627,0.663,0.6524,0.6655,0.6135,0.6254,0.6784,0.6787,0.6789,0,0.5118,0.5304,0.5312,0.5369,0.5515,0.5581,0.5695,0.5814,0.5917,0.6024,0.6131,0.6229,0.6281,0.6308,0.635,0.6407,0.6553,0.6413,0.6414,0.6482,0.6728,0.6631,0.664,0.6568,0.6571,0.6573,0.6767,0,0.5232,0.5299,0.5327,0.544,0.5516,0.557,0.5704,0.578,0.5866,0.594,0.6061,0.612,0.619,0.6233,0.6242,0.6345,0.6358,0.6329,0.6265,0.6363,0.6437,0.6455,0.6212,0.6209,0.6207,0.6206,0,0,0.5211,0.5282,0.538,0.5437,0.5492,0.5601,0.5651,0.5723,0.5827,0.5868,0.5894,0.6026,0.6047,0.6132,0.6181,0.6192,0.6236,0.6167,0.6314,0.6326,0.6337,0.6413,0.6432,0.6202,0.6202,0.6201,0.62,0,0.5238,0.5308,0.536,0.5421,0.5538,0.5594,0.5626,0.5722,0.5765,0.5855,0.5878,0.5946,0.6009,0.6037,0.606,0.6162,0.6157,0.6192,0.6233,0.6296,0.6311,0.6324,0.6402,0.642,0.6196,0.6196,0.6196,0,0.5245,0.532,0.5358,0.5466,0.5517,0.5583,0.5609,0.5688,0.5745,0.5742,0.5812,0.5852,0.5875,0.5947,0.5977,0.5942,0.608,0.6022,0.6032,0.6,0.606,0.6078,0.6093,0.5887,0.5886,0.5886,0,0,0.5257,0.5318,0.5428,0.5477,0.5519,0.5589,0.5631,0.5675,0.5727,0.5743,0.5768,0.5802,0.5848,0.5869,0.5894,0.5945,0.5945,0.5987,0.6001,0.6013,0.5989,0.6051,0.6068,0.5883,0.5883,0.5882,0,0,0.5253,0.5383,0.5416,0.5486,0.5555,0.5624,0.5657,0.5693,0.5727,0.5742,0.5745,0.5751,0.5825,0.5808,0.5771,0.5882,0.5819,0.5826,0.5899,0.5916,0.593,0.5896,0.5727,0,0,0,0,0,0.5337,0.5373,0.5403,0.543,0.5541,0.5614,0.5625,0.5677,0.5693,0.5702,0.5739,0.5713,0.5798,0.5765,0.5766,0.5825,0.5844,0.5851,0.5857,0.5963,0.5982,0.5998,0,0,0,0,0,0,0.5348,0.5376,0.5404,0.5478,0.5507,0.5611,0.5618,0.5629,0.5692,0.5694,0.571,0.5713,0.5705,0.5762,0.5764,0.5821,0.5727,0.5847,0.5853,0.5858,0.5969,0.5985,0.5998,0,0,0,0,0,0.5357,0.538,0.5547,0.5477,0.5501,0.5589,0.5616,0.5626,0.5656,0.5688,0.5691,0.5703,0.5705,0.5708,0.5763,0.5821,0.5725,0.5726,0.5851,0.5855,0.5859,0.5977,0,0,0,0,0,0,0.5365,0.5351,0.5553,0.5563,0.5482,0.5583,0.5597,0.5623,0.5643,0.5653,0.5677,0.5679,0.5704,0.5707,0.5709,0.5824,0.5724,0.5725,0.5725,0.5854,0.5858,0.5861,0,0,0,0,0,0,0.5342,0.5358,0.5557,0.5561,0.557,0.5577,0.5591,0.5599,0.564,0.5625,0.5631,0.5678,0.5706,0.5706,0.5708,0.5718,0.5723,0.5724,0.5724,0.5725,0.5857,0.586,0,0,0,0,0,0,0.535,0.5364,0.5556,0.5564,0.5572,0.5672,0.5581,0.5682,0.5681,0.562,0.5682,0.5683,0.5705,0.5707,0.5707,0.5716,0.5717,0.5723,0.5723,0.5724,0.5724,0,0,0,0,0,0,0,0.5356,0.5251,0.552,0.5567,0.5574,0.5663,0.5663,0.5663,0.5681,0.5681,0.5682,0.5682,0.5718,0.5719,0.572,0.5714,0,0,0.5723,0.5723,0,0,0,0,0,0,0,0,0.5246,0.5249,0.552,0.5524,0.5527,0.5663,0.5663,0.5663,0.5681,0.5681,0.5682,0.5682,0.5718,0.5719,0.572,0,0,0,0,0,0,0,0,0,0,0,0,0,0,0,0.5521,0.5524,0,0.5663,0.5663,0.5663,0.5681,0.5681,0.5682,0.5682,0.5719,0.5719,0.572,0,0,0,0,0,0,0,0,0,0,0,0,0,0,0,0,0,0,0,0,0,0,0,0,0,0,0,0,0,0,0,0,0,0,0,0,0,0,0,0,0,0,0,0,0,0,0,0,0,0,0,0,0,0,0,0,0,0,0,0,0,0,0,0,0,0,0,0,0]}],[{"header":{"parameterUnit":"kt","parameterCategory":2,"dx":1,"dy":1,"la1":30.253999710083008,"la2":30.299108505249023,"lo1":-89.0895004272461,"lo2":-89.04439544677734,"nx":28,"ny":28,"refTime":"2022-09-30T21:00:00:Z","depth":"2","parameterNumber":3,"parameterNumberName":"V-component_of_CURRENTS"},"data":[0.1743,0.1942,0.2041,0.2443,0.2641,0.2963,0.3157,0.3344,0.3454,0.3465,0.3356,0.3125,0.2201,0.144,0.0585,-0.0005,-0.0105,-0.0098,0.0012,0.0219,0.0232,-0.0374,-0.0271,0,0,0,0,0,0.1679,0.1801,0.1998,0.2257,0.2493,0.2584,0.2899,0.3045,0.327,0.3326,0.3321,0.2676,0.1984,0.1221,0.018,-0.0442,-0.0473,-0.0612,-0.053,-0.0522,-0.0517,-0.0462,-0.058,-0.0582,-0.0584,-0.0586,0,0,0.1567,0.1665,0.1821,0.2027,0.2222,0.2478,0.2658,0.2825,0.3022,0.3126,0.3009,0.2825,0.2146,0.1103,0.0426,-0.0266,-0.0249,-0.0487,-0.0482,-0.0478,-0.0422,-0.0377,-0.0528,-0.0529,-0.053,-0.053,-0.0531,0,0.1471,0.1521,0.163,0.1841,0.1996,0.2182,0.236,0.2494,0.2562,0.263,0.2685,0.2562,0.1922,0.1317,0.0514,0.0137,-0.0232,-0.0345,-0.0327,-0.0282,-0.0231,-0.0286,-0.0277,-0.0366,-0.0366,-0.0366,-0.0366,-0.0366,0.1343,0.142,0.1564,0.1669,0.1722,0.1868,0.1983,0.2026,0.2151,0.2176,0.2251,0.1998,0.1848,0.1173,0.0573,-0.0014,-0.0089,-0.0322,-0.038,-0.0334,-0.0394,-0.0382,-0.037,-0.0364,-0.0364,-0.0364,-0.0364,0,0.1278,0.1303,0.1432,0.1509,0.1554,0.1654,0.1796,0.1887,0.1871,0.1979,0.1968,0.1761,0.1465,0.1029,0.0587,0.0277,-0.0085,-0.0221,-0.0105,-0.0163,-0.0364,-0.0354,-0.0484,-0.0487,-0.0489,-0.049,-0.0492,0,0.1161,0.1244,0.1283,0.1349,0.1484,0.1465,0.1601,0.1586,0.1601,0.1691,0.1461,0.147,0.105,0.0829,0.0499,0.0143,0.0163,-0.0161,-0.0235,-0.0166,-0.0165,-0.0182,-0.0181,-0.0175,-0.0174,-0.0173,-0.0172,0,0.1027,0.1114,0.1213,0.1237,0.1282,0.133,0.1355,0.1331,0.138,0.1299,0.1308,0.1099,0.1026,0.0747,0.0426,0.0395,0.0113,0.0026,-0.019,-0.0195,-0.0212,-0.0217,-0.017,-0.017,-0.0169,-0.0169,-0.0169,0,0.0908,0.0957,0.1076,0.1132,0.1152,0.1202,0.1232,0.1248,0.1176,0.1126,0.103,0.0902,0.0774,0.0642,0.0365,0.0414,0.0221,0.0069,0.0058,-0.0016,-0.0111,-0.0182,-0.0172,-0.0106,-0.0104,-0.0103,-0.0102,0,0.0774,0.0881,0.0861,0.0967,0.102,0.0954,0.0984,0.0951,0.0895,0.0867,0.0711,0.0676,0.0534,0.0502,0.0396,0.0229,0.014,0.021,-0.0056,-0.0063,-0.0087,-0.0072,-0.0008,-0.0151,-0.0085,-0.0087,-0.0088,0,0.066,0.0688,0.0701,0.0735,0.0722,0.075,0.0761,0.0751,0.0766,0.065,0.065,0.0538,0.0445,0.0405,0.0302,0.0222,0.0159,0.0133,0.0126,0.0074,-0.0018,-0.0048,-0.0063,0.0093,0.0092,0.0092,-0.0075,0,0.0547,0.0572,0.061,0.063,0.0633,0.0669,0.0615,0.0595,0.0527,0.0473,0.0419,0.0307,0.0244,0.02,0.0149,0.012,0.007,0.0017,-0.0029,0.0009,-0.0072,-0.0081,-0.0003,-0.0005,-0.0007,-0.0008,0,0,0.0423,0.0468,0.0419,0.0463,0.0468,0.0378,0.0431,0.0397,0.0335,0.0317,0.0259,0.0146,0.0079,0.0059,0.0065,0.0025,-0.0036,0.0027,-0.0005,-0.0004,-0.0004,-0.0078,-0.0085,-0.0012,-0.0012,-0.0013,-0.0014,0,0.039,0.0359,0.0403,0.0398,0.0371,0.0339,0.0345,0.0293,0.026,0.0243,0.0153,0.0097,0.0041,-0.0011,-0.004,0.0001,-0.0092,-0.0024,0.0062,-0.0019,-0.0016,-0.0013,-0.0085,-0.009,-0.0018,-0.0018,-0.0018,0,0.03,0.0283,0.029,0.0276,0.0256,0.0279,0.0191,0.0192,0.0199,0.0085,0.0073,0.0001,-0.0066,-0.008,-0.0094,-0.0118,-0.0146,-0.0126,-0.0117,-0.0097,-0.0184,-0.0179,-0.0175,-0.0231,-0.0231,-0.0232,0,0,0.0271,0.0288,0.0242,0.0264,0.0259,0.02,0.0187,0.0148,0.011,0.0092,0.0028,-0.0035,-0.0072,-0.0093,-0.0136,-0.0141,-0.0202,-0.0146,-0.0136,-0.0128,-0.0102,-0.0186,-0.0182,-0.0232,-0.0232,-0.0232,0,0,0.0259,0.0224,0.0185,0.0206,0.0186,0.0139,0.0146,0.0098,0.0063,0.0045,-0.0037,-0.0053,-0.0072,-0.0119,-0.0119,-0.0154,-0.0203,-0.0203,-0.0108,-0.0097,-0.0087,-0.0045,-0.0195,0,0,0,0,0,0.0199,0.0232,0.0198,0.0192,0.0151,0.0155,0.0146,0.0086,0.0039,0.0058,-0.0005,-0.0057,-0.0139,-0.014,-0.0152,-0.014,-0.0241,-0.024,-0.0238,-0.0119,-0.0106,-0.0095,0,0,0,0,0,0,0.0197,0.0194,0.0196,0.0153,0.0141,0.0153,0.0077,0.0062,0.0037,0.0029,-0.0044,-0.0059,-0.0112,-0.0139,-0.0149,-0.0135,-0.0192,-0.0241,-0.0239,-0.0238,-0.0114,-0.0104,-0.0095,0,0,0,0,0,0.0195,0.0192,0.0148,0.0151,0.0141,0.0067,0.0076,0.0062,0.0045,-0.0036,-0.0051,0.0,-0.011,-0.0123,-0.0145,-0.0129,-0.0186,-0.0189,-0.024,-0.0239,-0.0238,-0.0109,0,0,0,0,0,0,0.0193,0.0178,0.0143,0.0137,0.0137,0.0065,0.0056,0.0064,-0.0019,-0.0035,0.0005,-0.0001,-0.0108,-0.0118,-0.0128,-0.0124,-0.0181,-0.0184,-0.0186,-0.0239,-0.0238,-0.0237,0,0,0,0,0,0,0.0178,0.0173,0.014,0.0126,0.0117,0.0064,0.0056,0.0028,-0.002,0.0026,0.0019,0.0003,-0.0102,-0.0115,-0.0123,-0.0164,-0.0177,-0.018,-0.0182,-0.0184,-0.0238,-0.0238,0,0,0,0,0,0,0.0174,0.017,0.0128,0.0121,0.0113,0.0034,0.0036,-0.0006,-0.0021,0.0031,-0.0026,-0.0028,-0.0098,-0.0106,-0.0119,-0.0156,-0.0162,-0.0177,-0.0179,-0.0181,-0.0182,0,0,0,0,0,0,0,0.0171,0.0223,0.0181,0.0117,0.011,0.0073,0.0071,0.007,-0.0022,-0.0024,-0.0026,-0.0027,-0.0158,-0.0162,-0.0166,-0.015,0,0,-0.0177,-0.0178,0,0,0,0,0,0,0,0,0.0222,0.0223,0.018,0.0179,0.0177,0.0072,0.0071,0.007,-0.0022,-0.0024,-0.0025,-0.0027,-0.0159,-0.0162,-0.0165,0,0,0,0,0,0,0,0,0,0,0,0,0,0,0,0.018,0.0179,0,0.0072,0.0071,0.007,-0.0022,-0.0024,-0.0025,-0.0026,-0.016,-0.0163,-0.0165,0,0,0,0,0,0,0,0,0,0,0,0,0,0,0,0,0,0,0,0,0,0,0,0,0,0,0,0,0,0,0,0,0,0,0,0,0,0,0,0,0,0,0,0,0,0,0,0,0,0,0,0,0,0,0,0,0,0,0,0,0,0,0,0,0,0,0,0,0]}]],[[{"header":{"parameterUnit":"kt","parameterCategory":2,"dx":1,"dy":1,"la1":30.253999710083008,"la2":30.299108505249023,"lo1":-89.0895004272461,"lo2":-89.04439544677734,"nx":28,"ny":28,"refTime":"2022-09-30T21:00:00:Z","depth":"4","parameterNumber":2,"parameterNumberName":"U-component_of_CURRENTS"},"data":[0.2271,0.2353,0.238,0.2386,0.2433,0.2564,0.2707,0.2925,0.297,0.333,0.3429,0.3687,0.3872,0.4069,0.4055,0.4098,0.4043,0.4513,0.4503,0.4584,0.4614,0.464,0.444,0,0,0,0,0,0.2334,0.2347,0.2453,0.2564,0.2718,0.2818,0.306,0.3212,0.355,0.3574,0.3771,0.393,0.405,0.4221,0.4128,0.4448,0.4546,0.4316,0.4364,0.4603,0.4635,0.443,0,0,0,0,0,0,0.2429,0.2464,0.2615,0.2744,0.2916,0.2984,0.3128,0.3311,0.3484,0.3927,0.3982,0.4291,0.4578,0.4572,0.4644,0.4631,0.4547,0.4374,0.4416,0.4449,0.4247,0.4081,0.3908,0,0,0,0,0,0.2504,0.2621,0.2725,0.2895,0.3055,0.3191,0.3429,0.3508,0.3862,0.4147,0.432,0.4426,0.4608,0.4726,0.4796,0.4816,0.5017,0.4939,0.4953,0.4804,0.4722,0.47,0.4703,0.4759,0.4764,0.4766,0.4768,0,0.2621,0.2676,0.2933,0.3019,0.3148,0.3363,0.3501,0.3818,0.3965,0.4367,0.4445,0.4738,0.4903,0.4903,0.5079,0.5122,0.5063,0.5025,0.4866,0.4773,0.4744,0.4739,0.4732,0.4794,0.4792,0.479,0.4788,0,0.2679,0.2821,0.2954,0.3201,0.3291,0.3416,0.3725,0.3859,0.415,0.4373,0.4484,0.4796,0.4973,0.5121,0.53,0.5153,0.5175,0.5113,0.5353,0.5337,0.479,0.4772,0.4837,0.4828,0.482,0.4813,0.4807,0,0.2801,0.2898,0.3121,0.3174,0.3332,0.3523,0.3728,0.391,0.4183,0.4345,0.4582,0.4732,0.4952,0.5089,0.5133,0.51,0.5299,0.4971,0.4945,0.5155,0.5138,0.5118,0.5095,0.5309,0.5307,0.5306,0.5305,0,0.2854,0.3036,0.314,0.3203,0.3427,0.3547,0.3693,0.394,0.4079,0.4379,0.4519,0.4726,0.4876,0.4969,0.5069,0.5033,0.5245,0.5189,0.4947,0.4927,0.5103,0.5081,0.5304,0.5304,0.5304,0.5303,0.5303,0,0.295,0.3031,0.3159,0.3351,0.3402,0.3517,0.3754,0.3887,0.4135,0.4276,0.4462,0.4574,0.4757,0.4732,0.4923,0.4873,0.4921,0.4962,0.4968,0.4642,0.4553,0.4796,0.4994,0.4991,0.4988,0.4985,0.4983,0,0.2953,0.3066,0.316,0.3299,0.3374,0.3519,0.3653,0.3812,0.3972,0.4157,0.4284,0.4464,0.4463,0.4575,0.4652,0.4741,0.4817,0.4719,0.4821,0.4823,0.4528,0.4639,0.4794,0.4946,0.495,0.4954,0.4956,0,0.2942,0.3108,0.313,0.3202,0.3361,0.3419,0.3577,0.3726,0.385,0.402,0.4181,0.434,0.4416,0.4463,0.4515,0.4594,0.4757,0.459,0.459,0.4635,0.4939,0.4631,0.4624,0.4774,0.4778,0.4781,0.493,0,0.2997,0.3085,0.3119,0.323,0.331,0.3387,0.3506,0.3625,0.3747,0.3839,0.4035,0.4133,0.4267,0.4314,0.433,0.4485,0.4474,0.4443,0.4382,0.4503,0.4549,0.4571,0.4284,0.4282,0.428,0.4278,0,0,0.2967,0.3034,0.31,0.316,0.3228,0.332,0.3391,0.3481,0.3633,0.3713,0.3754,0.3988,0.404,0.4176,0.4245,0.4257,0.4296,0.4259,0.4436,0.4454,0.447,0.4521,0.4544,0.4274,0.4273,0.4273,0.4272,0,0.2952,0.303,0.3077,0.3137,0.3241,0.3296,0.333,0.3446,0.3534,0.3674,0.3733,0.3853,0.3981,0.4046,0.4084,0.4219,0.4219,0.4254,0.4338,0.4416,0.4436,0.4455,0.4509,0.4531,0.4267,0.4267,0.4267,0,0.2936,0.2987,0.3023,0.3111,0.3177,0.3247,0.3274,0.3368,0.3451,0.3486,0.3659,0.3727,0.3782,0.3912,0.3972,0.3938,0.4139,0.407,0.4082,0.4075,0.4151,0.4175,0.4197,0.392,0.3919,0.3918,0,0,0.2926,0.2979,0.3052,0.3111,0.315,0.3233,0.3285,0.3348,0.3433,0.3488,0.3576,0.3666,0.3744,0.3803,0.3867,0.3964,0.3968,0.403,0.4047,0.406,0.4062,0.4141,0.4164,0.3915,0.3915,0.3915,0,0,0.2914,0.2994,0.3036,0.3105,0.3169,0.3238,0.3302,0.3351,0.346,0.3505,0.3554,0.3578,0.3715,0.3721,0.3672,0.3866,0.3795,0.3806,0.3877,0.3897,0.3913,0.3902,0.3658,0,0,0,0,0,0.2931,0.2973,0.3009,0.303,0.3149,0.321,0.323,0.3326,0.3373,0.3417,0.3515,0.3514,0.372,0.3677,0.369,0.3778,0.387,0.3878,0.3885,0.3999,0.402,0.4038,0,0,0,0,0,0,0.2939,0.296,0.3008,0.3071,0.31,0.3208,0.3251,0.3277,0.3372,0.3387,0.3497,0.3514,0.3544,0.367,0.3682,0.3766,0.3654,0.3873,0.388,0.3886,0.4006,0.4024,0.4039,0,0,0,0,0,0.2946,0.2963,0.3132,0.3072,0.3097,0.3223,0.3252,0.3275,0.3366,0.3427,0.3451,0.3445,0.3541,0.3559,0.3677,0.3761,0.3645,0.365,0.3877,0.3883,0.3887,0.4015,0,0,0,0,0,0,0.2951,0.2984,0.314,0.3152,0.309,0.3222,0.3246,0.3273,0.3403,0.3426,0.337,0.3379,0.3538,0.3552,0.3566,0.3761,0.3639,0.3643,0.3646,0.3881,0.3886,0.3889,0,0,0,0,0,0,0.2975,0.2992,0.3146,0.3162,0.3177,0.3221,0.3242,0.328,0.3403,0.3338,0.3351,0.3372,0.3519,0.3548,0.3558,0.3615,0.3633,0.3638,0.3641,0.3643,0.3885,0.3888,0,0,0,0,0,0,0.2984,0.2999,0.316,0.317,0.3183,0.332,0.3257,0.3376,0.3419,0.3331,0.3425,0.3428,0.3512,0.3525,0.3553,0.3604,0.3612,0.3633,0.3636,0.3639,0.364,0,0,0,0,0,0,0,0.2992,0.2867,0.3072,0.3178,0.3189,0.3259,0.3262,0.3266,0.3419,0.3422,0.3425,0.3427,0.3608,0.3613,0.3618,0.3596,0,0,0.3633,0.3635,0,0,0,0,0,0,0,0,0.2864,0.2866,0.3073,0.3075,0.3077,0.326,0.3262,0.3265,0.342,0.3422,0.3424,0.3426,0.361,0.3613,0.3617,0,0,0,0,0,0,0,0,0,0,0,0,0,0,0,0.3073,0.3075,0,0.326,0.3262,0.3264,0.342,0.3422,0.3424,0.3425,0.3611,0.3614,0.3617,0,0,0,0,0,0,0,0,0,0,0,0,0,0,0,0,0,0,0,0,0,0,0,0,0,0,0,0,0,0,0,0,0,0,0,0,0,0,0,0,0,0,0,0,0,0,0,0,0,0,0,0,0,0,0,0,0,0,0,0,0,0,0,0,0,0,0,0,0]}],[{"header":{"parameterUnit":"kt","parameterCategory":2,"dx":1,"dy":1,"la1":30.253999710083008,"la2":30.299108505249023,"lo1":-89.0895004272461,"lo2":-89.04439544677734,"nx":28,"ny":28,"refTime":"2022-09-30T21:00:00:Z","depth":"4","parameterNumber":3,"parameterNumberName":"V-component_of_CURRENTS"},"data":[0.1051,0.118,0.1259,0.1448,0.1573,0.1758,0.1872,0.1912,0.1879,0.1879,0.1601,0.1495,0.0973,0.1244,0.0455,0.035,0.0203,-0.0314,-0.0321,-0.0516,-0.051,-0.0504,-0.0407,0,0,0,0,0,0.1059,0.1135,0.128,0.1448,0.1624,0.1733,0.1891,0.1945,0.1998,0.1929,0.1891,0.1583,0.105,0.0823,0.0465,0.0354,-0.0106,-0.0077,-0.0234,-0.0512,-0.0505,-0.0413,0,0,0,0,0,0,0.1063,0.113,0.1261,0.1417,0.159,0.1728,0.1804,0.1862,0.192,0.1885,0.1839,0.1487,0.1295,0.0767,0.0417,0.0066,-0.0031,-0.0134,-0.0147,-0.0144,-0.0017,0.0097,0.0028,0,0,0,0,0,0.1041,0.1112,0.1201,0.1376,0.151,0.1647,0.1779,0.1839,0.1872,0.1876,0.1755,0.1469,0.1144,0.0708,0.0329,-0.0023,-0.0255,-0.0373,-0.0372,-0.0378,-0.0327,-0.0355,-0.0339,-0.0478,-0.0477,-0.0476,-0.0476,0,0.1008,0.1071,0.1227,0.1311,0.1368,0.15,0.1585,0.1635,0.1694,0.1658,0.1667,0.143,0.1243,0.071,0.0349,-0.0138,-0.0214,-0.0353,-0.0358,-0.0313,-0.0347,-0.0332,-0.0318,-0.047,-0.0471,-0.0471,-0.0472,0,0.0987,0.103,0.1137,0.1224,0.1274,0.1359,0.1481,0.1534,0.1523,0.1556,0.1544,0.1342,0.106,0.0727,0.0353,0.0142,-0.0154,-0.0263,-0.0101,-0.0139,-0.0314,-0.0302,-0.0461,-0.0463,-0.0464,-0.0466,-0.0467,0,0.0934,0.1003,0.107,0.1118,0.123,0.1231,0.1334,0.1323,0.1322,0.1354,0.1195,0.1152,0.0834,0.0628,0.0376,0.0071,0.0073,-0.0153,-0.0204,-0.0086,-0.0076,-0.0131,-0.0124,-0.0175,-0.0174,-0.0173,-0.0172,0,0.0867,0.0938,0.1018,0.1036,0.108,0.1125,0.1153,0.1128,0.1154,0.1088,0.1086,0.0903,0.0831,0.0604,0.0337,0.0335,0.005,0.0016,-0.0153,-0.0156,-0.0121,-0.0116,-0.017,-0.017,-0.017,-0.0169,-0.0169,0,0.0798,0.0836,0.0923,0.098,0.0996,0.1035,0.1059,0.1064,0.0999,0.0966,0.0882,0.079,0.0658,0.0576,0.0319,0.0378,0.0227,0.0103,0.0093,0.0043,0.0001,0.0,-0.0025,-0.0023,-0.0021,-0.002,-0.0018,0,0.0726,0.0796,0.0789,0.0865,0.0904,0.0869,0.0878,0.0856,0.082,0.0796,0.0669,0.064,0.0537,0.0519,0.0412,0.0279,0.0188,0.0266,0.005,0.0044,0.0034,0.0002,0.0171,0.0007,0.0003,0.0001,-0.0,0,0.0662,0.0692,0.0702,0.0734,0.0724,0.0746,0.0742,0.0734,0.0744,0.0664,0.0657,0.0552,0.0498,0.0459,0.0385,0.03,0.0219,0.0251,0.0245,0.0195,0.0052,0.0033,0.0017,0.018,0.0178,0.0177,0.0017,0,0.0602,0.0627,0.0649,0.0664,0.0668,0.0693,0.0659,0.065,0.0617,0.0582,0.0535,0.0449,0.0397,0.036,0.0322,0.0266,0.0242,0.0212,0.0184,0.0186,0.0115,0.0102,0.0238,0.0237,0.0236,0.0235,0,0,0.0535,0.0568,0.0546,0.0568,0.0577,0.0531,0.0565,0.0538,0.0506,0.0496,0.0469,0.0377,0.0326,0.028,0.0277,0.0252,0.0205,0.0256,0.0192,0.0188,0.0184,0.0117,0.0105,0.0233,0.0233,0.0233,0.0232,0,0.0515,0.0504,0.0537,0.0533,0.0524,0.0506,0.0513,0.0488,0.047,0.0458,0.0403,0.0357,0.0316,0.0264,0.0235,0.0243,0.0181,0.0232,0.0266,0.0186,0.0183,0.018,0.0115,0.0105,0.023,0.023,0.023,0,0.0465,0.0458,0.0471,0.0464,0.0455,0.0467,0.0423,0.043,0.0431,0.0366,0.0358,0.0312,0.0256,0.0234,0.0222,0.0208,0.0152,0.0186,0.0191,0.0196,0.0111,0.0109,0.0106,0.0135,0.0135,0.0135,0,0,0.0446,0.0465,0.0442,0.0457,0.0456,0.0427,0.0421,0.0404,0.0381,0.0371,0.0334,0.0291,0.0256,0.0239,0.0207,0.019,0.0138,0.0179,0.0183,0.0187,0.0195,0.0112,0.0109,0.0135,0.0135,0.0136,0,0,0.0437,0.0429,0.0413,0.0427,0.0417,0.0388,0.0395,0.0372,0.035,0.0347,0.0294,0.0283,0.0265,0.0232,0.024,0.0194,0.017,0.0168,0.0225,0.023,0.0234,0.0254,0.0196,0,0,0,0,0,0.0413,0.0432,0.0418,0.0417,0.0396,0.0395,0.039,0.0361,0.0342,0.0352,0.0315,0.0286,0.022,0.0227,0.0218,0.0217,0.0137,0.0137,0.0137,0.0206,0.0212,0.0216,0,0,0,0,0,0,0.0412,0.0412,0.0417,0.0391,0.0386,0.0394,0.0356,0.0348,0.0341,0.0338,0.0293,0.0284,0.0249,0.0228,0.0221,0.022,0.0198,0.0137,0.0137,0.0137,0.0208,0.0212,0.0216,0,0,0,0,0,0.0411,0.0411,0.0391,0.039,0.0385,0.035,0.0356,0.0349,0.0344,0.0293,0.0285,0.0324,0.025,0.0241,0.0224,0.0225,0.0203,0.02,0.0137,0.0137,0.0137,0.021,0,0,0,0,0,0,0.0411,0.0399,0.0389,0.0385,0.0386,0.0349,0.0344,0.035,0.0299,0.0291,0.0321,0.0319,0.0251,0.0244,0.0238,0.0228,0.0206,0.0204,0.0202,0.0137,0.0137,0.0137,0,0,0,0,0,0,0.0399,0.0397,0.0387,0.0384,0.038,0.0348,0.0344,0.0321,0.0299,0.033,0.0326,0.0321,0.0256,0.0246,0.0241,0.0204,0.0209,0.0207,0.0205,0.0204,0.0137,0.0137,0,0,0,0,0,0,0.0397,0.0395,0.0385,0.0382,0.0378,0.0336,0.0325,0.0303,0.0306,0.0332,0.0304,0.0304,0.0258,0.0253,0.0243,0.0209,0.0206,0.0209,0.0208,0.0206,0.0206,0,0,0,0,0,0,0,0.0395,0.0422,0.041,0.038,0.0376,0.0352,0.0351,0.035,0.0306,0.0305,0.0305,0.0304,0.0223,0.022,0.0218,0.0213,0,0,0.0209,0.0208,0,0,0,0,0,0,0,0,0.0421,0.0422,0.041,0.0409,0.0409,0.0352,0.0351,0.0351,0.0306,0.0305,0.0305,0.0304,0.0222,0.022,0.0218,0,0,0,0,0,0,0,0,0,0,0,0,0,0,0,0.041,0.0409,0,0.0352,0.0351,0.0351,0.0306,0.0305,0.0305,0.0304,0.0222,0.022,0.0218,0,0,0,0,0,0,0,0,0,0,0,0,0,0,0,0,0,0,0,0,0,0,0,0,0,0,0,0,0,0,0,0,0,0,0,0,0,0,0,0,0,0,0,0,0,0,0,0,0,0,0,0,0,0,0,0,0,0,0,0,0,0,0,0,0,0,0,0,0]}]]]